Location: Arpaise
(41.0333°N, 14.7333°E)
Time: 17:10:54
(UTC+00:00)

Meteor 2-10 Rocket - Pass Details

Date: 05 July 2020
Orbit: 734 x 884 km, 81.2° (Epoch: 11 August)

Event Time Altitude Azimuth Distance (km) Brightness Sun altitude
Rises 19:29:52 0° 353° (N) 3,197 7.5 -9.0°
Reaches altitude 10° 19:32:12 10° 356° (N) 2,283 6.7 -9.3°
Maximum altitude 19:37:17 65° 79° (ENE) 846 3.6 -10.0°
Enters shadow 19:42:29 10° 161° (SSE) 2,331 5.5 -10.7°
